Flag for USA

Past Weather in Downey, California, USA — Yesterday and Last 2 Weeks

Now
76 °F

Sunny.


Feels Like: 78 °F
Forecast: 82 / 65 °F
Wind: 8 mph from South

Location: Long Beach Airport
Current Time: Oct 19, 2020 at 2:34:04 pm
Latest Report: Oct 19, 2020 at 1:53 pm
Visibility: 10 mi
Pressure29.93 "Hg
Humidity: 60%
Dew Point: 61 °F
Location of DowneyLocation

Past Weather in Downey — Graph

°F

Downey Temperature Yesterday

Maximum temperature yesterday: 80 °F (at 3:53 pm)
Minimum temperature yesterday: 67 °F (at 1:04 am)
Average temperature yesterday: 71 °F

High & Low Weather Summary for the Past Weeks

 TemperatureHumidityPressure
High95 °F (Oct 15, 2:53 pm)100% (Oct 7, 2:53 am)30.02 "Hg (Oct 7, 2:53 am)
Low61 °F (Oct 11, 6:53 am)16% (Oct 13, 4:53 pm)29.83 "Hg (Oct 16, 5:53 pm)
Average72 °F73%29.94 "Hg
* Reported Oct 4 12:53 pm — Oct 19 12:53 pm, Downey. Weather by CustomWeather, © 2020

Note: Actual official high and low records may vary slightly from our data, if they occured in-between our weather recording intervals... More about our weather records

Downey Weather History for the Previous 24 Hours

Scroll right to see more
 ConditionsComfort  
Time TempWeatherWind HumidityBarometerVisibility
12:53 pm
Mon, Oct 19
74 °FSunny.7 mph64%29.96 "Hg10 mi
11:53 am73 °FSunny.7 mph66%29.97 "Hg8 mi
10:53 am73 °FSunny.5 mph64%29.98 "Hg7 mi
10:29 am71 °FSunny.No wind68%29.98 "Hg7 mi
9:53 am69 °FOvercast.3 mph73%29.99 "Hg7 mi
8:53 am67 °FOvercast.3 mph79%29.99 "Hg7 mi
7:53 am67 °FOvercast.No wind81%29.98 "Hg6 mi
6:53 am66 °FFog.No wind87%29.97 "Hg6 mi
5:53 am66 °FOvercast.No wind87%29.96 "Hg8 mi
4:53 am66 °FOvercast.5 mph87%29.95 "Hg10 mi
3:53 am65 °FOvercast.No wind91%29.96 "Hg10 mi
12:53 am66 °FClear.5 mph87%29.98 "Hg10 mi
11:53 pm
Sun, Oct 18
67 °FClear.5 mph85%29.98 "Hg10 mi
10:53 pm68 °FClear.7 mph82%29.99 "Hg10 mi
9:53 pm68 °FClear.5 mph84%29.97 "Hg10 mi
8:53 pm68 °FClear.5 mph84%29.96 "Hg10 mi
7:53 pm69 °FClear.8 mph81%29.95 "Hg10 mi
6:53 pm71 °FClear.8 mph76%29.93 "Hg10 mi
5:53 pm73 °FSunny.9 mph69%29.93 "Hg10 mi
4:53 pm77 °FSunny.10 mph62%29.92 "Hg9 mi
3:53 pm80 °FSunny.5 mph54%29.92 "Hg8 mi
2:53 pm77 °FSunny.6 mph62%29.93 "Hg8 mi
Weather by CustomWeather, © 2020

See weather overview